OpenBCM V1.08-5-g2f4a (Linux)

Packet Radio Mailbox

IZ3LSV

[San Dona' di P. JN]

 Login: GUEST





  
LU9DCE > KEPS     12.02.18 17:13l 258 Lines 12980 Bytes #999 (0) @ WW
BID : 31634_LU9DCE
Read: GUEST
Subj: SAT TLE OF 12
Path: IZ3LSV<IR2UBX<EA2RCF<LU9DCE
Sent: 180212/1601Z @:LU9DCE.TOR.BA.ARG.SOAM #:31634 [TORTUGUITAS] FBB7.07
From: LU9DCE@LU9DCE.TOR.BA.ARG.SOAM
To  : KEPS@WW


            __    _  _  ___  ____   ___  ____    ____  ____  ____
           (  )  / )( \/ _ \(    \ / __)(  __)  (  _ \(  _ \/ ___)
           / (_/\) \/ (\__  )) D (( (__  ) _)    ) _ ( ) _ (\___ \
           \____/\____/(___/(____/ \___)(____)  (____/(____/(____/
               ESTACION DE PACKET RADIO - BUENOS AIRES (GF05OM)
                   BOLETINES INFORMATIVOS PROGRAMADOS (BIP)
                    LU9DCE@GMX.COM - RF 147070 @ 1200 BAUD
                           telnet lu9dce.dynu.com
             BBS port 6300 / NODE port 3694 / DXCLUSTER port 9000

+------------------------------------------------------------------------------+
OSCAR 7
1 07530U 74089B   18042.88301112 -.00000036  00000-0  52854-4 0  9990
2 07530 101.6697  12.1700 0011838 217.0201 197.8536 12.53631156978895
OSCAR 11 (UoSAT 2)
1 14781U 84021B   18043.10866290  .00000062  00000-0  13853-4 0  9996
2 14781  97.6665  84.5458 0009693 127.8813 232.3279 14.82979535825908
OSCAR 19 (LUSAT)
1 20442U 90005G   18043.42837522 -.00000009  00000-0  12676-4 0  9991
2 20442  98.5996 342.7641 0012190 153.5656 206.6152 14.32886484466029
KITSAT B
1 22825U 93061C   18042.90732341 -.00000010 +00000-0 +13892-4 0  9991
2 22825 098.8471 016.8565 0008394 359.5773 000.5400 14.30021459271392
POSAT 1
1 22826U 93061D   18042.88316481 -.00000002 +00000-0 +17076-4 0  9991
2 22826 098.8413 016.8854 0008728 349.0225 011.0765 14.30352347271593
RADIO ROSTO
1 23439U 94085A   18043.54583312 -.00000049  00000-0 -16924-3 0  9994
2 23439  64.8149 190.4144 0161368 204.2107 238.7469 11.27566637952671
JAS 2
1 24278U 96046B   18042.59837458 -.00000020 +00000-0 +12858-4 0  9993
2 24278 098.5291 258.5720 0351348 076.7931 287.2151 13.53081176061003
TECHSAT 1B
1 25397U 98043D   18042.78879110 -.00000025 +00000-0 +81563-5 0  9992
2 25397 098.6378 345.3866 0002056 053.2147 306.9220 14.23639490017662
ISS (ZARYA)
1 25544U 98067A   18042.90956019 +.00001362 +00000-0 +27862-4 0  9995
2 25544 051.6430 283.2454 0003480 096.2706 084.6375 15.54082494099030
PCSAT
1 26931U 01043C   18043.55407028 -.00000036  00000-0  17934-4 0  9994
2 26931  67.0505 190.9990 0005697 281.2052  78.8409 14.30493641854727
SAUDISAT 1C
1 27607U 02058C   18043.49691992 -.00000019  00000-0  17960-4 0  9990
2 27607  64.5553 111.1579 0050257 358.5056   1.5888 14.75418756814560
CUTE-1
1 27844U 03031E   18043.00249872  .00000060  00000-0  46876-4 0  9991
2 27844  98.6889  53.4932 0010064  20.0661 340.0910 14.22093793758408
CUBESAT XI 4
1 27848U 03031J   18042.99747245  .00000041  00000-0  38690-4 0  9993
2 27848  98.6978  53.8427 0010141  29.8077 330.3677 14.21700457758276
MOZHAYETS 4
1 27939U 03042A   18043.53585831  .00000103  00000-0  26898-4 0  9994
2 27939  97.9692 186.0410 0013075 178.1650 255.1364 14.66656264768540
CUBESAT XI 5
1 28895U 05043F   18042.40912837 +.00000135 +00000-0 +34612-4 0  9992
2 28895 097.8892 199.0952 0018163 106.3574 253.9628 14.63507293655479
CUTE-1.7+APD II
1 32785U 08021C   18042.84388652  .00000215  00000-0  28969-4 0  9991
2 32785  97.5531  60.9721 0014661  93.9771 266.3122 14.88059508530532
DELFI C3
1 32789U 08021G   18042.79331884  .00000672  00000-0  50544-4 0  9995
2 32789  97.5291 100.6972 0012608  13.0850 347.0701 15.05735890532918
SEEDS
1 32791U 08021J   18042.59877951 +.00000388 +00000-0 +45111-4 0  9994
2 32791 097.5453 065.7960 0014919 078.4762 281.8131 14.90464133530724
YUBELEINY
1 32953U 08025A   18043.20801557  .00000029  00000-0  13753-3 0  9994
2 32953  82.5006  90.4117 0020323 121.4926 238.8142 12.43081491441248
PRISM (HITOMI)
1 33493U 09002B   18043.50530150  .00000022  00000-0  76700-5 0  9997
2 33493  98.1422 300.7325 0015984  13.4174 346.7486 14.96064638491703
KKS-1 (KISEKI)
1 33499U 09002H   18043.52064546  .00000104  00000-0  23458-4 0  9998
2 33499  98.3483 221.2729 0008607 336.6252  23.4563 14.75293219486798
SWISSCUBE
1 35932U 09051B   18043.44424821  .00000102  00000-0  34121-4 0  9990
2 35932  98.5250 191.7438 0006930 226.6348 133.4272 14.56119496445286
BEESAT
1 35933U 09051C   18043.41183437  .00000091  00000-0  31466-4 0  9999
2 35933  98.5290 193.1772 0004914 239.7839 120.2872 14.56227845445387
ITUPSAT 1
1 35935U 09051E   18042.91504803 +.00000098 +00000-0 +33763-4 0  9998
2 35935 098.5402 192.9238 0007256 237.6557 122.3937 14.55409688445071
XIWANG-1 (HOPE-1)
1 36122U 09072B   18043.21229274 -.00000034  00000-0  22705-4 0  9995
2 36122 100.0838  63.6549 0007938  45.1592 315.0166 13.16343339392206
TISAT 1
1 36799U 10035E   18043.33761398  .00000259  00000-0  32493-4 0  9990
2 36799  98.0867 176.4043 0011125 256.3837 103.6142 14.90690275411559
JUGNU
1 37839U 11058B   18043.24630722  .00000312  00000-0  24428-4 0  9997
2 37839  19.9621  74.8603 0018763 310.1778 122.4323 14.12608951327680
SRMSAT
1 37841U 11058D   18042.60492640 +.00000294 +00000-0 +16380-4 0  9991
2 37841 019.9718 125.3620 0011701 190.5012 312.2369 14.10597963327033
M-CUBED/EXP-1 PRIME
1 37855U 11061F   18042.96093771 +.00001087 +00000-0 +63632-4 0  9994
2 37855 101.7245 041.4092 0177799 092.7261 269.4315 15.04038591342350
HORYU 2
1 38340U 12025D   18042.55261024  .00000180  00000-0  34511-4 0  9995
2 38340  98.3743  59.9088 0010449 248.4024 111.6071 14.75496687308583
STRAND 1
1 39090U 13009E   18042.88284923 +.00000031 +00000-0 +26168-4 0  9994
2 39090 098.5327 250.8044 0008408 314.5778 045.4720 14.35010420259834
BEESAT 3
1 39134U 13015E   18042.77932462  .00001326  00000-0  72661-4 0  9993
2 39134  64.8640 172.4696 0025647 227.5616 132.3343 15.18795050265854
SOMP
1 39135U 13015F   18042.73022859  .00001298  00000-0  76008-4 0  9997
2 39135  64.8692 184.3795 0030420 248.9529 110.8343 15.16378228265627
BEESAT 2
1 39136U 13015G   18043.18417548  .00001109  00000-0  67394-4 0  9990
2 39136  64.8691 185.3699 0030166 250.1129 109.6745 15.15857764265649
CUBEBUG 1
1 39153U 13018D   18043.19637900  .00000173  00000-0  29606-4 0  9993
2 39153  97.9794 139.1945 0016728 355.9665   4.1410 14.80337697259108
ZACUBE
1 39417U 13066B   18042.90903937 +.00000192 +00000-0 +30782-4 0  9991
2 39417 097.6021 078.1448 0058645 204.1471 155.6992 14.80873009228256
TRITON 1
1 39427U 13066M   18042.98916629  .00000154  00000-0  32989-4 0  9991
2 39427  97.6376  47.2476 0112903 300.9041  58.1103 14.67609286226218
GOMX 1
1 39430U 13066Q   18043.49031275  .00000255  00000-0  55272-4 0  9999
2 39430  97.6846  29.4413 0151865   4.7618 355.4986 14.59021199224971
HUMSAT D
1 39433U 13066T   18043.14748795  .00000234  00000-0  28456-4 0  9997
2 39433  97.6218 103.7990 0032187 137.1607 223.2128 14.91743567229787
50 SAT
1 39436U 13066W   18043.32901990  .00057305  00000-0  74506-3 0  9995
2 39436  97.7115 169.4446 0006311 283.3204  76.7347 15.58589610233756
CUBEBUG 2
1 39440U 13066AA  18043.03384455  .00000175  00000-0  31628-4 0  9991
2 39440  97.6096  65.6566 0079330 241.4355 117.8855 14.75610222227465
FUNCUBE 1
1 39444U 13066AE  18042.83508365 +.00000223 +00000-0 +34010-4 0  9992
2 39444 097.6033 079.4401 0057929 200.2148 159.6772 14.81637422227093
UWE-3
1 39446U 13066AG  18043.06787606  .00000172  00000-0  29776-4 0  9993
2 39446  97.6045  71.6346 0069348 222.8745 136.7048 14.78142895226633
SPROUT
1 39770U 14029E   18043.54762274  .00000494  00000-0  61805-4 0  9996
2 39770  97.8726 145.6937 0007564 254.8242 105.2131 14.86662228201844
UNISAT 6
1 40012U 14033C   18043.22252308  .00000138  00000-0  28273-4 0  9996
2 40012  97.8269 283.9869 0057254 241.2322 118.3128 14.73762344196296
DUCHIFAT 1
1 40021U 14033M   18042.96951379  .00000400  00000-0  47135-4 0  9990
2 40021  97.9179 321.4639 0011800 227.7304 132.2913 14.90193671198307
QB50P1
1 40025U 14033R   18043.32923613  .00000209  00000-0  28428-4 0  9996
2 40025  97.9090 318.9661 0011315 232.3278 127.6913 14.88633168198217
CHUBUSAT 1
1 40300U 14070C   18043.19673988  .00000661  00000-0  32436-4 0  9991
2 40300  97.3751 123.5180 0019936 346.4504  97.4576 15.21378934181275
NUDT-PHONESAT
1 40900U 15049B   18042.91711869 +.00001893 +00000-0 +88874-4 0  9999
2 40900 097.4429 052.6531 0015271 106.0202 254.2717 15.20765433132874
ZDPS 2A
1 40901U 15049C   18043.47413954  .00000774  00000-0  42658-4 0  9993
2 40901  97.4594  51.7861 0015397 109.1346 251.1556 15.16845966132755
ZDPS 2B
1 40902U 15049D   18043.16742639  .00000737  00000-0  40973-4 0  9992
2 40902  97.4482  49.7171 0015458 107.5913 252.7010 15.16653398132694
XW-2A
1 40903U 15049E   18043.50548923  .00001620  00000-0  42628-4 0  9992
2 40903  97.3994  77.0541 0015957 117.1223 243.1652 15.39987857134617
KAITUO 1A
1 40904U 15049F   18043.57731350  .00000198  00000-0  14124-4 0  9997
2 40904  97.4581  49.5086 0016362 106.7463   8.9052 15.14875676132639
OBJECT G
1 40905U 15049G   18043.49286560  .00000370  00000-0  24002-4 0  9995
2 40905  97.4567  47.7116 0017515 101.2478 259.0723 15.13853409132559
XW-2C
1 40906U 15049H   18043.49529079  .00000565  00000-0  33707-4 0  9999
2 40906  97.4589  49.2958 0016755 101.0859 259.2258 15.15009470132616
XW-2D
1 40907U 15049J   18043.52566800  .00000625  00000-0  36733-4 0  9996
2 40907  97.4561  49.0391 0016131  99.0834 261.2224 15.15146964132620
LILACSAT 2
1 40908U 15049K   18042.92216164 +.00000318 +00000-0 +21405-4 0  9994
2 40908 097.4669 047.9633 0017706 101.5785 258.7435 15.13402673132422
XW-2F
1 40910U 15049M   18043.17277685  .00000975  00000-0  53709-4 0  9991
2 40910  97.4570  49.7834 0016877  96.9989 263.3164 15.16250258132514
XW-2B
1 40911U 15049N   18043.07645064  .00000633  00000-0  37223-4 0  9995
2 40911  97.4599  49.0868 0016022 100.9123 259.3913 15.15095588132456
